Tracking 31027 objects as of 19-Jul-2025
HD Live streaming from Space Station
objects crossing your sky now

COSMOS 397 DEB

Track COSMOS 397 DEB now!
10-day predictions


NORAD ID: 5763
Int'l Code: 1971-015CF
Perigee: 849.3 km
Apogee: 1,382.2 km
Inclination: 66.9 °
Period: 107.4 minutes
Semi major axis: 7486 km
RCS: 0.0229 m2 (small)
Launch date: February 25, 1971
Source: Commonwealth of Independent States (former USSR) (CIS)
Launch site: TYURATAM MISSILE AND SPACE COMPLEX (TTMTR)

Note: This is SATELLITE DEBRIS
Your satellite tracking list
FLOCK 3K 7
Track 1 satellite(s)




NASA's NSSDC Master Catalog

Two Line Element Set (TLE):
1 05763U 71015CF  25199.53439570  .00000463  00000-0  66806-3 0  9999
2 05763  66.9010 298.8941 0355883 116.2080 247.6020 13.40182738608143
Source of the keplerian elements: AFSPC